カタログに戻る

NOAA 16 DEB

運用中SSO
NORAD 41081·DEBRIS·🇺🇸 United States

打ち上げ Sep 21, 2000 から Vandenberg Space Force Base

Loading…

次のパス (今後24時間)

TLE

最新Source: Space-Track

元期: Sep 14, 2026, 14:33 UTC

1 41081U 00055AQ  26257.60657189  .00000764  00000-0  34124-3 0  9992
2 41081  99.1860 131.4425 0137520  57.1541 304.2787 14.20800976557904

AllMySatでNOAA 16 DEBをリアルタイム追跡

Download on the App Store